GPS BIIR-13 (PRN 02)

Last updated on Mon Sep 15 2025 00:03:16 GMT+0000 (Coordinated Universal Time)

1 28474U 04045A 25257.13665557 -.00000092 00000+0 00000+0 0 9997 2 28474 55.2820 336.0113 0167623 305.9918 87.2668 2.00565264152898
UTC large
Height (km)
Speed (km/s)
/
Latitude / Longitude
Inclination (degrees)
Orbital Period (minutes)
Azimuth
Elevation
Range (km)
Doppler Factor

Next 0 passes for location: London (51.5072 / 0.1276)

Sorry there are no passes over London.